Regional Weather Roundup
Issued by NWS

Home | Current Version | Previous Version | Graphics & Text | Print | Product List | Glossary Off
Versions: 1 2 3 4 5 6 7 8 9 10 11 12 13 14 15 16 17 18 19 20 21 22 23 24 25 26 27 28 29 30 31 32 33 34 35 36 37 38 39 40 41 42 43 44 45 46 47 48 49 50

000
ASUS43 KMKX 160710
RWRWI

WISCONSIN REGIONAL WEATHER ROUNDUP
NATIONAL WEATHER SERVICE MILWAUKEE/SULLIVAN WI
100 AM CST MON JAN 16 2017

NOTE: "FAIR" INDICATES FEW OR NO CLOUDS BELOW 12,000 FEET WITH NO
SIGNIFICANT WEATHER AND/OR OBSTRUCTIONS TO VISIBILITY.

WIZ001-002-006>008-014>016-023>028-160800-
NORTHWEST WISCONSIN

CITY           SKY/WX    TMP DP  RH WIND       PRES   REMARKS
SUPERIOR ARPT  CLOUDY    15  13  93 W5        30.16S WCI   8
ASHLAND        CLOUDY    20  13  74 S8        30.16F WCI  10
HAYWARD        CLOUDY     7   2  80 CALM      30.17S
SIREN          CLOUDY    10   8  92 CALM      30.18S
CUMBERLAND     CLOUDY     9   5  85 S5        30.18S FOG     WCI   0
RICE LAKE      CLOUDY     0  -3  85 CALM      30.21S
CHETEK         CLOUDY     0  -3  87 CALM      30.21S
LADYSMITH      CLOUDY     4   2  89 CALM      30.22S
EAU CLAIRE     CLOUDY     5   3  91 CALM      30.21F FOG
MENOMONIE      CLOUDY     8   5  89 E5        30.22F WCI  -1
NEW RICHMOND   CLOUDY    16  13  89 S5        30.19F WCI   8
OSCEOLA        CLOUDY    19  15  84 S8        30.22S WCI   9
$$

WIZ003>005-009-010-017-018-160800-
NORTH CENTRAL WISCONSIN

CITY           SKY/WX    TMP DP  RH WIND       PRES   REMARKS
MANITOWISH WTR PTCLDY    13  10  85 S5        30.15S WCI   6
ARBOR VITAE    CLOUDY    13   9  83 CALM      30.16S
WOODRUFF       CLOUDY    13   9  83 CALM      30.16S
RHINELANDER    PTCLDY    15  11  83 SW8       30.17S WCI   4
EAGLE RIVER    CLOUDY    14   8  76 CALM      30.15S
LAND O LAKES   CLOUDY     8   5  91 CALM      30.15S
PHILLIPS       CLOUDY    12   9  87 S3        30.17S
TOMAHAWK       CLOUDY     3   0  87 CALM      30.19S
MEDFORD        CLOUDY    13   8  82 SW3       30.19S
MERRILL        CLOUDY    -4  -8  83 CALM        N/A
$$

WIZ029-030-035-036-043>047-160800-
CENTRAL WISCONSIN

CITY           SKY/WX    TMP DP  RH WIND       PRES   REMARKS
WAUSAU         CLOUDY     2   0  91 CALM      30.21F
MOSINEE        CLOUDY    12  12 100 CALM      30.23R
MARSHFIELD     CLOUDY    16  11  80 SW6       30.20F WCI   7
STEVENS POINT  CLOUDY     1  -2  87 CALM      30.24F
WAUPACA        CLOUDY     9   5  84 CALM      30.26S
WAUTOMA        CLOUDY     8   4  83 CALM      30.27S
WISC RAPIDS    CLOUDY     8   5  87 CALM      30.25F
CAMP DOUGLAS   CLOUDY    12   9  88 CALM      30.24F
$$

WIZ011>013-019>022-031-037>040-048>050-160800-
NORTHEAST WISCONSIN

CITY           SKY/WX    TMP DP  RH WIND       PRES   REMARKS
ANTIGO         CLOUDY    -4  -6  89 CALM      30.19F
SHAWANO        CLOUDY    11   8  88 CALM      30.25F
OCONTO         CLOUDY     6   3  88 CALM      30.25F
STURGEON BAY   CLOUDY    19  12  74 SW7       30.25F WCI  10
GREEN BAY      CLOUDY    18  13  80 SW3       30.26S
MANITOWOC      CLOUDY    11   9  92 CALM      30.27F
APPLETON       CLOUDY    19  12  73 SW7       30.23F WCI  10
CLINTONVILLE   CLOUDY     5   1  85 CALM      30.25F
OSHKOSH        CLOUDY    20  13  74 SW5       30.26S WCI  13
$$

WIZ032>034-041-042-053>061-160800-
SOUTHWEST WISCONSIN

CITY           SKY/WX    TMP DP  RH WIND       PRES   REMARKS
LA CROSSE      CLOUDY   N/A N/A N/A SE3       30.27S
SPARTA         CLOUDY     8   7  94 CALM      30.27S
VIROQUA        CLOUDY    24  17  75 CALM      30.22F
BOSCOBEL       CLOUDY    22  18  85 CALM      30.27F
PRAIRIE DU CHI CLOUDY    23  18  80 CALM      30.26F
PLATTEVILLE    CLOUDY    28  21  75 SE5       30.25S WCI  23
$$

WIZ056-057-062-063-064-067-068-160800-
SOUTH CENTRAL WISCONSIN

CITY           SKY/WX    TMP DP  RH WIND       PRES   REMARKS
REEDSBURG      CLOUDY    16  15  93 CALM      30.26S
BARABOO/DELLS  CLOUDY    18  14  84 CALM      30.25S
LONE ROCK      PTCLDY    20  16  84 CALM      30.28S
MINERAL POINT  CLOUDY    28  19  69 CALM      30.24S
MADISON        CLOUDY    21  18  88 CALM      30.26F
MIDDLETON      CLOUDY    22  20  90 CALM      30.26F
WATERTOWN      PTCLDY    19  18  95 CALM      30.27S
MONROE         PTCLDY    28  21  74 S6        30.24S WCI  22
JANESVILLE     CLOUDY    27  21  80 CALM      30.27S
$$

WIZ051-052-058>065-066-070>072-160800-
SOUTHEAST WISCONSIN

CITY           SKY/WX    TMP DP  RH WIND       PRES   REMARKS
MILWAUKEE      CLOUDY    24  17  74 CALM      30.28S
WAUKESHA       CLOUDY    19  16  86 CALM      30.28S
MILWAUKEE/TIMM PTCLDY    23  18  80 CALM      30.29S
RACINE         CLOUDY    26  17  68 CALM      30.30S
KENOSHA        PTCLDY    23  17  78 CALM      30.28F HAZE
FOND DU LAC    CLOUDY    11   5  77 CALM      30.26F
SHEBOYGAN      CLOUDY    14   9  80 CALM      30.27F
WEST BEND      PTCLDY    16  14  93 CALM      30.27S
JUNEAU         CLOUDY    19  15  85 S3        30.28S
$$

LSZ147-162-160800-
LAKE SUPERIOR

STATION/POSITION TIME  TEMP    WIND        PRES    WAVE
                       AIR SEA DIR/SP/G            HT/PER
                 (UTC) (F)     (DEG/KT/KT) (MB)    (FT/S)
DEVILS ISLAND    0700   27     220/ 19/ 23 1021.3F
PORT WING        0640   23     220/  6/ 10 1021.0F
SAXON HARBOR     0640   24     200/  6/ 10 1021.3F
$$

LMZ867-665-643>646-160800-
LAKE MICHIGAN

STATION/POSITION TIME  TEMP    WIND        PRES    WAVE
                       AIR SEA DIR/SP/G            HT/PER
                 (UTC) (F)     (DEG/KT/KT) (MB)    (FT/S)
NORTHPORT PIER   0703   25     240/  3/ 12 1023.7
SISTER BAY       0635   24     230/  7/  9   N/A
ALGOMA LAKESHORE 0438          230/  8/  9   N/A
KEWAUNEE LAKESHO 0648          310/  1/  2 1024.5F
SHEBOYGAN LAKESH 0700   24     220/  4/  5 1026.0F
PORT WASHINGTON  0630   24     270/  3/  4 1026.4S
MILWAUKEE LAKESH 0650   30     220/  5/  6   N/A
KENOSHA   LAKESH 0700   30     210/  1/  2 1025.4
$$

TC  - TEMPERATURE IN CELSIUS
VSB - VISIBILITY IN STATUTE MILES
WCI - WIND CHILL INDEX
HX  - HEAT INDEX





USA.gov is the U.S. government's official web portal to all federal, state and local government web resources and services.